LOT2302 LTFM-EPGD

Flight info

Callsign LOT2302
Flight time N/A
Altitude 32000
Route IBLAX1D/35L IBLAX P727 BGS/N0452F340 L622 GONGO/N0459F380 DCT KOMAN DCT KARIL DCT KENIN DCT LENOV N133 GRUDA Z95 OSLOG
Aircraft B738/M-SDE2E3FGHIJ1RWXY/LB1

Departure

Time N/A
Airport İstanbul Airport (LTFM)

Arrival

Time 2026-05-03 20:54
Airport Gdańsk Lech Wałęsa Airport (EPGD)
Time Latitude Longitude Altitude Speed Heading
2026-05-03 20:15 50.84347 20.29655 38062 ft 422 kts 340°
2026-05-03 20:15 50.89858 20.26513 38058 ft 421 kts 340°
2026-05-03 20:16 50.95387 20.23354 38060 ft 422 kts 340°
2026-05-03 20:16 51.00881 20.20206 38057 ft 422 kts 340°
2026-05-03 20:17 51.06397 20.17037 38059 ft 422 kts 340°
2026-05-03 20:17 51.11884 20.13878 38051 ft 422 kts 340°
2026-05-03 20:18 51.17430 20.10677 38049 ft 422 kts 340°
2026-05-03 20:18 51.22930 20.07493 38049 ft 422 kts 340°
2026-05-03 20:19 51.28445 20.04293 38043 ft 423 kts 340°
2026-05-03 20:19 51.33947 20.01093 38042 ft 423 kts 340°
2026-05-03 20:20 51.39480 19.97866 38037 ft 422 kts 340°
2026-05-03 20:20 51.44971 19.94656 38036 ft 423 kts 340°
2026-05-03 20:21 51.50477 19.91428 38031 ft 423 kts 340°
2026-05-03 20:21 51.56007 19.88179 38026 ft 423 kts 340°
2026-05-03 20:22 51.61523 19.84928 38028 ft 423 kts 340°
2026-05-03 20:22 51.67045 19.81666 38021 ft 424 kts 340°
2026-05-03 20:23 51.72541 19.78411 38019 ft 424 kts 340°
2026-05-03 20:23 51.78064 19.75131 38018 ft 423 kts 340°
2026-05-03 20:24 51.83577 19.71849 38017 ft 424 kts 339°
2026-05-03 20:24 51.89100 19.68553 38013 ft 424 kts 339°
2026-05-03 20:25 51.94609 19.65256 38008 ft 424 kts 339°
2026-05-03 20:25 52.00085 19.61970 38008 ft 424 kts 339°
2026-05-03 20:26 52.05622 19.58639 38003 ft 425 kts 339°
2026-05-03 20:26 52.11138 19.55311 38001 ft 425 kts 339°
2026-05-03 20:27 52.16668 19.51968 37997 ft 425 kts 339°
2026-05-03 20:27 52.22045 19.48708 37994 ft 425 kts 339°
2026-05-03 20:28 52.27458 19.45417 37988 ft 425 kts 339°
2026-05-03 20:28 52.32893 19.42104 37983 ft 425 kts 339°
2026-05-03 20:29 52.38438 19.38715 37976 ft 426 kts 339°
2026-05-03 20:29 52.43979 19.35320 37975 ft 426 kts 339°
2026-05-03 20:29 52.46759 19.33612 37705 ft 429 kts 338°
2026-05-03 20:30 52.49569 19.31884 37005 ft 430 kts 339°
2026-05-03 20:30 52.52336 19.30181 36392 ft 429 kts 339°
2026-05-03 20:30 52.55135 19.28465 35819 ft 428 kts 340°
2026-05-03 20:30 52.58015 19.27031 35207 ft 428 kts 345°
2026-05-03 20:31 52.60923 19.26049 34578 ft 428 kts 349°
2026-05-03 20:31 52.63432 19.25387 33996 ft 428 kts 350°
2026-05-03 20:31 52.66409 19.24668 33307 ft 428 kts 351°
2026-05-03 20:31 52.69346 19.23961 32628 ft 427 kts 350°
2026-05-03 20:32 52.72311 19.23223 31943 ft 426 kts 350°
2026-05-03 20:32 52.75219 19.22468 31269 ft 425 kts 349°
2026-05-03 20:32 52.78112 19.21690 30528 ft 426 kts 349°
2026-05-03 20:32 52.81038 19.20879 29489 ft 433 kts 349°
2026-05-03 20:33 52.84038 19.20029 28494 ft 438 kts 349°
2026-05-03 20:33 52.87025 19.19171 27618 ft 440 kts 349°
2026-05-03 20:33 52.90028 19.18299 26754 ft 441 kts 348°
2026-05-03 20:33 52.93014 19.17429 26182 ft 435 kts 348°
2026-05-03 20:34 52.95955 19.16569 25712 ft 428 kts 348°
2026-05-03 20:34 52.98837 19.15725 25200 ft 422 kts 348°
2026-05-03 20:34 53.01706 19.14881 24701 ft 416 kts 348°
2026-05-03 20:34 53.04538 19.14047 24197 ft 410 kts 348°
2026-05-03 20:35 53.07287 19.13236 23702 ft 404 kts 348°
2026-05-03 20:35 53.10042 19.12421 23202 ft 400 kts 348°
2026-05-03 20:35 53.12757 19.11616 22702 ft 395 kts 348°
2026-05-03 20:35 53.15484 19.10807 22194 ft 391 kts 347°
2026-05-03 20:36 53.18121 19.10023 21699 ft 387 kts 347°
2026-05-03 20:36 53.20754 19.09240 21196 ft 384 kts 347°
2026-05-03 20:36 53.23369 19.08462 20703 ft 380 kts 347°
2026-05-03 20:36 53.25966 19.07688 20194 ft 377 kts 347°
2026-05-03 20:37 53.28497 19.06933 19716 ft 373 kts 347°
2026-05-03 20:37 53.31046 19.06171 19224 ft 370 kts 347°
2026-05-03 20:37 53.33567 19.05416 18753 ft 367 kts 347°
2026-05-03 20:37 53.36025 19.04681 18467 ft 358 kts 346°
2026-05-03 20:38 53.38475 19.03948 18127 ft 352 kts 346°
2026-05-03 20:38 53.40844 19.03236 17674 ft 349 kts 346°
2026-05-03 20:38 53.43234 19.02516 17209 ft 347 kts 346°
2026-05-03 20:38 53.45602 19.01801 16755 ft 345 kts 346°
2026-05-03 20:39 53.47923 19.01100 16299 ft 343 kts 346°
2026-05-03 20:39 53.49386 19.00658 16005 ft 342 kts 346°
2026-05-03 20:39 53.51713 18.99955 15556 ft 340 kts 347°
2026-05-03 20:39 53.53774 18.99332 15160 ft 338 kts 347°
2026-05-03 20:40 53.56067 18.98638 14699 ft 337 kts 346°
2026-05-03 20:40 53.58377 18.97939 14237 ft 335 kts 346°
2026-05-03 20:40 53.60634 18.97255 13786 ft 334 kts 346°
2026-05-03 20:40 53.62924 18.96560 13335 ft 332 kts 346°
2026-05-03 20:41 53.65172 18.95878 12896 ft 331 kts 346°
2026-05-03 20:41 53.67441 18.95186 12447 ft 329 kts 346°
2026-05-03 20:41 53.69664 18.94508 11997 ft 328 kts 346°
2026-05-03 20:41 53.71903 18.93826 11557 ft 326 kts 346°
2026-05-03 20:42 53.74110 18.93152 11116 ft 324 kts 347°
2026-05-03 20:42 53.76325 18.92476 10687 ft 322 kts 346°
2026-05-03 20:42 53.78527 18.91803 10262 ft 320 kts 346°
2026-05-03 20:42 53.80665 18.91149 10046 ft 310 kts 347°
2026-05-03 20:43 53.82752 18.90514 9960 ft 297 kts 347°
2026-05-03 20:43 53.84721 18.89914 9885 ft 285 kts 346°
2026-05-03 20:43 53.86656 18.89320 9607 ft 281 kts 346°
2026-05-03 20:43 53.88560 18.88730 9233 ft 280 kts 346°
2026-05-03 20:44 53.90481 18.88134 8891 ft 279 kts 346°
2026-05-03 20:44 53.92390 18.87544 8539 ft 279 kts 346°
2026-05-03 20:44 53.94271 18.86964 8192 ft 278 kts 346°
2026-05-03 20:44 53.96183 18.86374 7848 ft 277 kts 346°
2026-05-03 20:45 53.98057 18.85796 7508 ft 276 kts 346°
2026-05-03 20:45 53.99951 18.85211 7146 ft 275 kts 346°
2026-05-03 20:45 54.01832 18.84629 6810 ft 274 kts 346°
2026-05-03 20:45 54.03700 18.84050 6458 ft 273 kts 345°
2026-05-03 20:46 54.05562 18.83472 6151 ft 270 kts 345°
2026-05-03 20:46 54.07371 18.82913 5895 ft 265 kts 345°
2026-05-03 20:46 54.09165 18.82361 5684 ft 259 kts 345°
2026-05-03 20:46 54.10911 18.81821 5532 ft 251 kts 344°
2026-05-03 20:47 54.12598 18.81299 5422 ft 241 kts 344°
2026-05-03 20:47 54.14205 18.80799 5287 ft 234 kts 344°
2026-05-03 20:47 54.15814 18.80294 5137 ft 233 kts 344°
2026-05-03 20:47 54.17392 18.79797 4989 ft 229 kts 344°
2026-05-03 20:48 54.18936 18.79318 4865 ft 220 kts 344°
2026-05-03 20:48 54.20415 18.78857 4753 ft 211 kts 343°
2026-05-03 20:48 54.21794 18.78315 4621 ft 202 kts 339°
2026-05-03 20:48 54.23143 18.77669 4407 ft 199 kts 337°
2026-05-03 20:49 54.24464 18.77022 4197 ft 196 kts 338°
2026-05-03 20:49 54.25759 18.76407 4004 ft 195 kts 338°
2026-05-03 20:49 54.27071 18.75794 3804 ft 194 kts 338°
2026-05-03 20:49 54.28361 18.75192 3626 ft 193 kts 338°
2026-05-03 20:50 54.29664 18.74580 3451 ft 193 kts 336°
2026-05-03 20:50 54.30862 18.73691 3275 ft 186 kts 315°
2026-05-03 20:50 54.31570 18.71969 3103 ft 173 kts 284°
2026-05-03 20:50 54.31953 18.70043 2998 ft 172 kts 286°
2026-05-03 20:51 54.32411 18.68153 2927 ft 175 kts 288°
2026-05-03 20:51 54.32890 18.66193 2645 ft 178 kts 288°
2026-05-03 20:51 54.33366 18.64261 2406 ft 176 kts 289°
2026-05-03 20:51 54.33836 18.62362 2163 ft 171 kts 289°
2026-05-03 20:52 54.34285 18.60575 1940 ft 158 kts 290°
2026-05-03 20:52 54.34697 18.58937 1735 ft 145 kts 290°
2026-05-03 20:52 54.35089 18.57353 1566 ft 142 kts 290°
2026-05-03 20:52 54.35470 18.55789 1361 ft 145 kts 290°
2026-05-03 20:53 54.35877 18.54176 1159 ft 148 kts 291°
2026-05-03 20:53 54.36279 18.52560 962 ft 148 kts 291°
2026-05-03 20:53 54.36689 18.50926 760 ft 152 kts 292°
2026-05-03 20:53 54.37107 18.49242 552 ft 154 kts 292°
2026-05-03 20:54 54.37497 18.47668 493 ft 116 kts 293°
2026-05-03 20:54 54.37810 18.46402 493 ft 32 kts 294°
2026-05-03 20:54 54.37899 18.46062 493 ft 29 kts 300°
2026-05-03 20:55 54.38012 18.45821 493 ft 22 kts 320°
2026-05-03 20:55 54.38117 18.45710 493 ft 15 kts
2026-05-03 20:55 54.38130 18.45839 493 ft 12 kts 112°
2026-05-03 20:55 54.38100 18.45968 493 ft 11 kts 101°
2026-05-03 20:56 54.38132 18.46073 493 ft 10 kts 29°
2026-05-03 20:56 54.38177 18.46144 493 ft 9 kts 88°
2026-05-03 20:56 54.38158 18.46242 493 ft 8 kts 113°
2026-05-03 20:56 54.38137 18.46327 493 ft 7 kts 109°
2026-05-03 20:57 54.38155 18.46367 493 ft 2 kts 30°
2026-05-03 20:57 54.38171 18.46379 493 ft 0 kts 22°